SCP
0 0 0 0 0 0 0 0 0 0 0 0 0 0 0 0 0 0 0 0 0 0 0 0 0 0 0 0 0 0 0 0 0 -0 -0 0 0 0 0 -0 0 0 0
0 0 0 0 0 0 0 0 0 0 0 0 0 0 0 0 0 0 0 0 0 0 0 0 0 0 0 0 0 0 0 0 0 -0 -0 -0 -0 0 0 0 0 0 0
0 0 0 0 0 0 0 0 0 0 0 0 0 0 0 0 0 0 0 0 0 0 0 0 0 0 0 0 0 0 0 0 0 0 0 -0 0 0 -0 0 0 0 0
0 0 0 0 0 0 0 0 0 0 0 0 0 0 0 0 0 0 0 0 0 0 0 0 0 0 0 0 0 0 0 0 0 0 0 0 0 0 0 -0 0 0 0
0 0 0 0 0 0 0 0 0 0 0 0 0 0 0 0 0 0 0 0 0 0 0 0 0 0 0 0 0 0 0 0 0 0 0 0 0 0 0 0 0 0 0
0 0 0 0 0 0 0 0 0 0 0 0 0 0 0 0 0 0 0 0 0 0 0 0 0 0 0 0 0 0 0 0 0 0 0 0 0 0 0 0 0 0 0
0 0 0 0 0 0 0 0 0 0 0 0 0 0 0 0 0 0 0 0 0 0 0 0 0 0 0 0 0 0 0 0 0 0 0 0 0 0 0 0 0 0 0
0 0 0 0 0 0 0 0 0 0 0 0 0 0 0 0 0 0 0 0 0 0 0 0 0 0 0 0 0 0 0 0 0 0 0 0 0 0 0 0 0 0 0
0 0 0 0 0 0 0 0 0 0 0 0 0 0 0 0 0 0 0 0 0 0 0 0 0 0 0 0 0 0 0 0 0 0 0 0 0 0 0 0 0 0 0
0 0 0 0 0 0 0 0 0 0 0 0 0 0 0 0 0 0 0 0 0 0 0 0 0 0 0 0 0 0 0 0 0 0 0 0 0 0 0 0 0 0 0
0 0 0 0 0 0 0 0 0 0 0 0 0 0 0 0 0 0 0 0 0 0 0 0 0 0 0 0 0 0 0 0 0 0 0 0 0 0 0 0 0 0 0
0 0 0 0 0 0 0 0 0 0 0 0 0 0 0 0 0 0 0 0 0 0 0 0 0 0 0 0 0 0 0 0 0 0 0 0 0 0 0 0 0 0 0
0 0 0 0 0 0 0 0 0 0 0 0 0 0 0 0 0 0 0 0 0 0 0 0 0 0 0 0 0 0 0 0 0 0 0 0 0 0 0 0 0 0 0
0 0 0 0 0 0 0 0 0 0 0 0 0 0 0 0 0 0 0 0 0 0 0 0 0 0 0 0 0 0 0 0 0 0 0 0 0 0 0 0 0 0 0
0 0 0 0 0 0 0 0 0 0 0 0 0 0 0 0 0 0 0 0 0 0 0 0 0 0 0 0 0 0 0 0 0 0 0 0 0 0 0 0 0 0 0
0 0 0 0 0 0 0 0 0 0 0 0 0 0 0 0 0 0 0 0 0 0 0 0 0 0 0 0 0 0 0 0 0 0 0 0 0 0 0 0 0 0 0
0 0 0 0 0 0 0 0 0 0 0 0 0 0 0 0 0 0 0 0 0 0 0 0 0 0 0 0 0 0 0 0 0 0 0 0 0 0 0 0 0 0 0
0 0 0 0 0 0 0 0 0 0 0 0 0 0 0 0 0 0 0 0 0 0 0 0 0 0 0 0 0 0 0 0 0 0 0 0 0 0 0 0 0 0 0
0 0 0 0 0 0 0 0 0 0 0 0 0 0 0 0 0 0 0 0 0 0 0 0 0 0 0 0 0 0 0 0 0 0 0 0 0 0 0 0 0 0 0
0 0 0 0 0 0 0 0 0 0 0 0 0 0 0 0 0 0 0 0 0 0 0 0 0 0 0 0 0 0 0 0 0 0 0 0 0 0 0 0 0 0 0
0 0 0 0 0 0 0 0 0 0 0 0 0 0 0 0 0 0 0 0 0 0 0 0 0 0 0 0 0 0 0 0 0 0 0 0 0 0 0 0 0 0 0
0 0 0 0 0 0 0 0 0 0 0 0 0 0 0 0 0 0 0 0 0 0 0 0 0 0 0 0 0 0 0 0 0 0 0 0 0 0 0 0 0 0 0
0 0 0 0 0 0 0 0 0 0 0 0 0 0 0 0 0 0 0 0 0 0 0 0 0 0 0 0 0 0 0 0 0 0 0 0 0 0 0 0 0 0 0
0 0 0 0 0 0 0 0 0 0 0 0 0 0 0 0 0 0 0 0 0 0 0 0 0 0 0 0 0 0 0 0 0 0 0 0 0 0 0 0 0 0 0
0 0 0 0 0 0 0 0 0 0 0 0 0 0 0 0 0 0 0 0 0 0 0 0 0 0 0 0 0 0 0 0 0 0 0 0 0 0 0 0 0 0 0
-0 0 0 0 0 0 0 0 0 0 0 0 0 0 0 0 0 0 0 0 0 0 0 0 0 0 0 0 0 0 0 0 0 0 0 0 0 0 0 0 0 0 0
Wind_Speed_500mb
73 68 73 72 70 77 81 80 77 75 72 76 76 73 69 65 62 58 56 51 47 40 35 34 33 33 34 37 39 41 42 44 53 65 73 67 70 36 33 50 58 53 54
51 53 69 75 74 80 83 82 80 75 76 79 77 73 67 68 62 61 60 56 51 42 38 37 36 34 34 37 39 42 42 42 46 55 59 42 60 19 70 43 54 56 43
53 50 66 74 72 79 85 85 80 75 76 79 78 77 71 69 70 70 68 62 56 49 43 40 37 36 36 37 40 42 41 40 42 42 40 23 20 76 22 79 40 37 47
41 55 66 72 73 74 79 81 79 76 76 80 83 88 89 85 82 74 68 65 60 53 45 41 38 38 37 39 41 42 39 39 44 46 43 47 53 35 53 58 42 76 77
32 49 58 70 66 66 75 79 80 78 77 81 84 88 88 83 73 71 69 68 62 54 48 42 41 39 39 41 43 41 38 38 45 46 48 54 54 54 62 97 74 90 100
26 33 46 53 60 65 70 77 79 79 81 83 82 88 87 86 82 81 77 71 64 58 52 46 43 41 42 44 43 43 41 41 46 51 53 56 58 58 56 78 112 116 120
26 32 42 53 63 69 72 77 80 81 81 84 85 88 86 87 88 86 81 73 68 62 55 50 46 44 44 44 44 46 46 46 50 54 58 61 64 65 68 75 99 106 129
32 34 41 48 59 67 69 75 79 83 84 85 84 86 85 87 91 92 85 77 70 61 56 52 48 46 45 46 48 49 50 50 55 60 65 67 68 68 70 75 80 104 122
34 35 40 49 54 61 63 68 77 82 84 82 83 84 85 88 94 94 86 77 70 65 59 54 50 47 47 48 50 52 53 55 60 66 68 71 72 71 73 75 76 68 86
31 32 35 46 53 55 55 63 76 84 85 84 83 82 82 86 93 94 87 81 73 67 60 54 51 48 48 50 52 54 54 59 64 67 71 72 70 72 77 80 82 76 79
27 29 30 42 46 46 53 65 75 84 91 89 86 83 82 85 92 94 86 81 72 66 58 53 49 50 49 51 54 55 56 61 64 66 69 71 70 76 81 83 86 84 77
27 30 31 36 39 52 61 70 76 84 92 91 88 86 85 85 90 90 86 79 73 64 57 52 50 49 50 51 53 55 56 61 65 67 68 71 75 81 84 86 86 85 84
39 40 48 59 68 70 74 78 80 85 88 92 91 91 91 91 92 88 82 77 69 62 57 52 50 49 51 51 53 53 58 62 63 67 70 76 78 84 86 85 86 87 87
54 47 41 58 67 74 75 79 83 82 86 90 92 93 95 95 94 82 80 76 68 61 55 51 49 48 48 51 49 53 59 62 66 69 74 78 80 83 81 82 86 90 90
69 77 76 74 76 78 79 82 84 86 86 87 90 95 97 95 87 75 80 75 67 59 53 49 47 46 48 47 46 53 59 64 69 73 77 77 77 73 69 78 88 91 97
76 70 69 65 57 61 67 72 83 89 86 86 88 94 95 92 79 75 78 72 65 58 52 48 46 45 45 41 46 52 59 63 68 74 76 76 77 81 70 73 79 81 92
80 65 62 73 59 45 42 51 65 78 79 81 85 90 92 85 75 75 76 70 62 55 50 46 44 43 37 40 47 52 57 60 65 69 72 78 81 82 86 90 88 92 90
82 89 74 57 49 40 39 40 55 68 76 79 85 89 88 79 76 81 77 67 60 52 46 46 41 35 34 41 47 49 51 57 61 64 72 78 84 85 78 89 97 100 96
94 85 74 55 50 41 34 38 50 64 70 78 85 87 83 79 80 84 75 66 57 49 48 42 36 33 35 40 42 43 49 55 61 67 69 74 88 75 75 85 97 108 107
63 63 60 53 46 39 37 39 48 58 67 75 77 78 75 75 82 80 73 64 53 51 44 39 34 33 34 33 33 35 44 55 65 70 78 78 67 71 81 87 93 102 95
48 56 48 47 40 41 43 45 51 61 66 71 74 73 74 75 81 79 69 59 57 49 44 36 31 30 31 24 27 30 38 51 63 77 81 76 70 80 76 71 83 81 85
46 45 39 44 44 45 47 55 60 60 68 73 74 76 77 85 85 74 66 62 53 50 42 35 27 26 20 21 28 26 32 42 56 69 73 77 79 71 70 66 69 71 72
52 53 49 55 65 59 62 66 68 69 73 76 76 76 83 88 83 74 69 59 54 49 41 30 25 16 15 18 24 30 33 40 49 59 59 69 68 68 70 63 63 65 61
71 69 70 69 64 66 71 73 74 75 76 76 78 83 94 91 80 75 65 59 55 48 39 27 20 14 11 16 25 35 43 50 51 56 59 59 64 67 69 73 73 73 65
74 70 75 75 75 70 72 76 80 81 82 79 84 95 95 86 82 70 67 63 51 41 31 23 18 11 10 14 18 25 34 38 40 48 56 67 73 79 79 79 80 86 71
77 86 81 71 69 77 73 81 86 85 89 85 95 105 98 91 80 76 67 57 44 37 30 24 15 6 5 7 12 19 25 29 37 47 62 71 76 78 81 85 87 90 88
Wind_Direction_500mb
265 253 243 226 226 225 226 228 227 226 221 221 222 225 227 228 231 233 237 239 244 250 262 273 283 292 299 308 314 312 317 326 327 328 328 330 338 335 344 330 319 313 311
259 247 233 222 222 224 223 225 230 228 227 227 228 230 230 230 234 234 236 239 243 249 259 269 278 286 295 303 307 306 316 324 330 328 331 332 335 301 317 310 309 295 293
254 240 222 217 219 221 224 227 231 230 228 229 227 228 226 229 230 232 236 238 241 245 254 265 274 283 290 298 302 305 309 316 324 320 319 324 301 313 315 316 320 297 295
263 226 218 216 224 229 227 227 228 230 229 231 229 229 231 229 235 239 238 237 239 243 249 258 269 277 286 291 294 297 303 306 312 313 313 308 306 314 313 326 296 300 302
259 213 220 226 231 226 223 223 225 228 230 231 231 232 234 235 237 236 234 236 239 241 247 257 266 274 281 285 288 292 298 300 301 302 307 303 296 295 293 303 302 301 304
224 215 221 224 224 222 220 220 221 225 228 231 234 235 236 234 232 232 232 235 238 240 247 256 263 270 274 278 284 290 295 296 296 302 302 295 292 293 289 290 301 303 305
220 214 212 215 217 219 218 220 222 223 228 232 235 236 237 234 236 238 236 234 235 239 246 254 261 266 270 277 284 288 291 294 297 298 296 292 290 291 289 286 291 295 301
225 222 222 223 219 218 223 224 224 224 228 232 235 237 237 235 236 239 236 236 238 242 246 253 261 267 272 277 281 285 291 294 297 296 297 295 293 292 288 286 290 295 296
228 231 231 232 227 224 231 233 230 229 231 234 234 237 236 236 236 237 235 235 236 239 244 251 258 263 268 275 280 286 291 295 298 298 296 295 296 293 290 286 282 271 285
236 235 233 234 233 238 244 243 238 236 234 233 235 239 237 237 237 236 234 234 235 237 243 250 256 262 267 273 279 286 293 296 296 298 297 295 297 294 291 287 283 272 265
225 231 240 243 243 244 249 247 241 239 235 233 234 237 237 238 237 236 234 232 233 236 242 249 255 261 268 275 281 288 293 295 296 297 296 296 299 297 294 291 287 276 265
236 231 240 255 262 272 259 252 250 245 242 235 234 236 237 237 237 236 231 229 231 235 241 248 255 263 270 277 284 289 294 294 295 296 295 299 300 298 297 295 286 277 269
232 243 263 262 265 267 265 262 253 253 246 237 234 234 234 236 238 234 229 226 228 233 240 247 253 261 270 278 284 290 292 293 295 298 300 303 302 302 301 292 284 278 276
257 262 271 276 271 268 261 259 257 254 248 238 236 234 234 235 237 233 228 225 226 232 239 247 255 263 271 279 285 290 293 296 299 300 302 305 304 303 299 293 287 285 281
281 278 277 273 269 268 264 262 259 256 249 239 237 235 234 235 235 230 224 223 225 231 239 246 255 265 273 279 289 293 296 297 301 304 306 306 306 302 291 289 288 288 285
274 275 278 275 266 268 270 268 260 254 249 244 237 233 232 234 230 228 221 221 225 230 237 245 255 264 271 285 291 294 294 298 303 306 309 311 312 313 298 292 287 284 285
275 274 276 284 284 279 275 270 264 250 245 239 236 232 232 230 229 224 218 220 225 231 238 247 255 263 277 287 289 292 293 301 307 310 314 319 319 314 305 304 297 292 287
276 276 278 280 277 273 267 257 246 240 237 236 232 230 228 227 223 216 215 219 225 231 240 247 254 266 278 282 287 294 300 305 308 318 323 322 318 311 306 304 300 298 296
273 274 276 273 272 268 269 258 242 235 232 230 228 226 225 222 217 211 211 217 223 231 239 246 255 267 275 283 292 300 305 310 321 324 323 317 310 313 311 308 304 302 298
262 264 263 262 258 259 263 252 239 233 231 229 226 226 223 218 210 210 210 212 219 230 236 244 255 267 277 284 297 309 315 319 323 323 318 321 314 317 316 309 305 304 302
271 263 242 247 255 256 251 244 240 238 234 227 224 221 217 210 207 208 209 212 217 222 231 239 251 266 275 298 306 311 321 323 321 312 320 328 325 319 319 315 306 303 307
270 255 259 261 261 263 262 251 245 240 232 227 223 215 207 198 202 205 210 211 213 225 226 232 245 261 283 302 311 325 323 322 314 315 326 330 322 323 325 321 321 315 308
304 283 272 266 266 263 259 254 247 238 230 224 218 209 198 198 199 205 207 210 219 218 219 227 238 252 274 300 327 342 328 325 322 327 326 326 332 337 340 335 327 331 337
301 293 283 267 260 270 260 253 244 237 231 221 214 203 197 194 198 199 204 215 215 216 213 216 233 242 279 317 346 348 336 332 336 334 334 340 345 351 350 351 349 347 341
292 284 286 281 275 269 260 250 243 237 227 217 210 198 195 195 194 200 207 211 210 212 212 212 215 242 303 353 344 335 335 334 338 334 345 357 359 357 356 357 354 352 344
296 289 282 273 275 273 263 249 241 233 223 211 204 197 193 194 193 197 198 201 201 202 203 201 201 232 308 359 332 345 346 350 350 352 1 5 4 2 358 355 351 347 348
Wind_Speed_850mb
73 68 73 72 70 77 81 80 77 75 72 76 76 73 69 65 62 58 56 51 47 40 35 34 33 33 34 37 39 41 42 44 53 65 73 67 70 36 33 50 58 53 54
51 53 69 75 74 80 83 82 80 75 76 79 77 73 67 68 62 61 60 56 51 42 38 37 36 34 34 37 39 42 42 42 46 55 59 42 60 19 70 43 54 56 43
53 50 66 74 72 79 85 85 80 75 76 79 78 77 71 69 70 70 68 62 56 49 43 40 37 36 36 37 40 42 41 40 42 42 40 23 20 76 22 79 40 37 47
41 55 66 72 73 74 79 81 79 76 76 80 83 88 89 85 82 74 68 65 60 53 45 41 38 38 37 39 41 42 39 39 44 46 43 47 53 35 53 58 42 76 77
32 49 58 70 66 66 75 79 80 78 77 81 84 88 88 83 73 71 69 68 62 54 48 42 41 39 39 41 43 41 38 38 45 46 48 54 54 54 62 97 74 90 100
26 33 46 53 60 65 70 77 79 79 81 83 82 88 87 86 82 81 77 71 64 58 52 46 43 41 42 44 43 43 41 41 46 51 53 56 58 58 56 78 112 116 120
26 32 42 53 63 69 72 77 80 81 81 84 85 88 86 87 88 86 81 73 68 62 55 50 46 44 44 44 44 46 46 46 50 54 58 61 64 65 68 75 99 106 129
32 34 41 48 59 67 69 75 79 83 84 85 84 86 85 87 91 92 85 77 70 61 56 52 48 46 45 46 48 49 50 50 55 60 65 67 68 68 70 75 80 104 122
34 35 40 49 54 61 63 68 77 82 84 82 83 84 85 88 94 94 86 77 70 65 59 54 50 47 47 48 50 52 53 55 60 66 68 71 72 71 73 75 76 68 86
31 32 35 46 53 55 55 63 76 84 85 84 83 82 82 86 93 94 87 81 73 67 60 54 51 48 48 50 52 54 54 59 64 67 71 72 70 72 77 80 82 76 79
27 29 30 42 46 46 53 65 75 84 91 89 86 83 82 85 92 94 86 81 72 66 58 53 49 50 49 51 54 55 56 61 64 66 69 71 70 76 81 83 86 84 77
27 30 31 36 39 52 61 70 76 84 92 91 88 86 85 85 90 90 86 79 73 64 57 52 50 49 50 51 53 55 56 61 65 67 68 71 75 81 84 86 86 85 84
39 40 48 59 68 70 74 78 80 85 88 92 91 91 91 91 92 88 82 77 69 62 57 52 50 49 51 51 53 53 58 62 63 67 70 76 78 84 86 85 86 87 87
54 47 41 58 67 74 75 79 83 82 86 90 92 93 95 95 94 82 80 76 68 61 55 51 49 48 48 51 49 53 59 62 66 69 74 78 80 83 81 82 86 90 90
69 77 76 74 76 78 79 82 84 86 86 87 90 95 97 95 87 75 80 75 67 59 53 49 47 46 48 47 46 53 59 64 69 73 77 77 77 73 69 78 88 91 97
76 70 69 65 57 61 67 72 83 89 86 86 88 94 95 92 79 75 78 72 65 58 52 48 46 45 45 41 46 52 59 63 68 74 76 76 77 81 70 73 79 81 92
80 65 62 73 59 45 42 51 65 78 79 81 85 90 92 85 75 75 76 70 62 55 50 46 44 43 37 40 47 52 57 60 65 69 72 78 81 82 86 90 88 92 90
82 89 74 57 49 40 39 40 55 68 76 79 85 89 88 79 76 81 77 67 60 52 46 46 41 35 34 41 47 49 51 57 61 64 72 78 84 85 78 89 97 100 96
94 85 74 55 50 41 34 38 50 64 70 78 85 87 83 79 80 84 75 66 57 49 48 42 36 33 35 40 42 43 49 55 61 67 69 74 88 75 75 85 97 108 107
63 63 60 53 46 39 37 39 48 58 67 75 77 78 75 75 82 80 73 64 53 51 44 39 34 33 34 33 33 35 44 55 65 70 78 78 67 71 81 87 93 102 95
48 56 48 47 40 41 43 45 51 61 66 71 74 73 74 75 81 79 69 59 57 49 44 36 31 30 31 24 27 30 38 51 63 77 81 76 70 80 76 71 83 81 85
46 45 39 44 44 45 47 55 60 60 68 73 74 76 77 85 85 74 66 62 53 50 42 35 27 26 20 21 28 26 32 42 56 69 73 77 79 71 70 66 69 71 72
52 53 49 55 65 59 62 66 68 69 73 76 76 76 83 88 83 74 69 59 54 49 41 30 25 16 15 18 24 30 33 40 49 59 59 69 68 68 70 63 63 65 61
71 69 70 69 64 66 71 73 74 75 76 76 78 83 94 91 80 75 65 59 55 48 39 27 20 14 11 16 25 35 43 50 51 56 59 59 64 67 69 73 73 73 65
74 70 75 75 75 70 72 76 80 81 82 79 84 95 95 86 82 70 67 63 51 41 31 23 18 11 10 14 18 25 34 38 40 48 56 67 73 79 79 79 80 86 71
77 86 81 71 69 77 73 81 86 85 89 85 95 105 98 91 80 76 67 57 44 37 30 24 15 6 5 7 12 19 25 29 37 47 62 71 76 78 81 85 87 90 88
Wind_Direction_850mb
265 253 243 226 226 225 226 228 227 226 221 221 222 225 227 228 231 233 237 239 244 250 262 273 283 292 299 308 314 312 317 326 327 328 328 330 338 335 344 330 319 313 311
259 247 233 222 222 224 223 225 230 228 227 227 228 230 230 230 234 234 236 239 243 249 259 269 278 286 295 303 307 306 316 324 330 328 331 332 335 301 317 310 309 295 293
254 240 222 217 219 221 224 227 231 230 228 229 227 228 226 229 230 232 236 238 241 245 254 265 274 283 290 298 302 305 309 316 324 320 319 324 301 313 315 316 320 297 295
263 226 218 216 224 229 227 227 228 230 229 231 229 229 231 229 235 239 238 237 239 243 249 258 269 277 286 291 294 297 303 306 312 313 313 308 306 314 313 326 296 300 302
259 213 220 226 231 226 223 223 225 228 230 231 231 232 234 235 237 236 234 236 239 241 247 257 266 274 281 285 288 292 298 300 301 302 307 303 296 295 293 303 302 301 304
224 215 221 224 224 222 220 220 221 225 228 231 234 235 236 234 232 232 232 235 238 240 247 256 263 270 274 278 284 290 295 296 296 302 302 295 292 293 289 290 301 303 305
220 214 212 215 217 219 218 220 222 223 228 232 235 236 237 234 236 238 236 234 235 239 246 254 261 266 270 277 284 288 291 294 297 298 296 292 290 291 289 286 291 295 301
225 222 222 223 219 218 223 224 224 224 228 232 235 237 237 235 236 239 236 236 238 242 246 253 261 267 272 277 281 285 291 294 297 296 297 295 293 292 288 286 290 295 296
228 231 231 232 227 224 231 233 230 229 231 234 234 237 236 236 236 237 235 235 236 239 244 251 258 263 268 275 280 286 291 295 298 298 296 295 296 293 290 286 282 271 285
236 235 233 234 233 238 244 243 238 236 234 233 235 239 237 237 237 236 234 234 235 237 243 250 256 262 267 273 279 286 293 296 296 298 297 295 297 294 291 287 283 272 265
225 231 240 243 243 244 249 247 241 239 235 233 234 237 237 238 237 236 234 232 233 236 242 249 255 261 268 275 281 288 293 295 296 297 296 296 299 297 294 291 287 276 265
236 231 240 255 262 272 259 252 250 245 242 235 234 236 237 237 237 236 231 229 231 235 241 248 255 263 270 277 284 289 294 294 295 296 295 299 300 298 297 295 286 277 269
232 243 263 262 265 267 265 262 253 253 246 237 234 234 234 236 238 234 229 226 228 233 240 247 253 261 270 278 284 290 292 293 295 298 300 303 302 302 301 292 284 278 276
257 262 271 276 271 268 261 259 257 254 248 238 236 234 234 235 237 233 228 225 226 232 239 247 255 263 271 279 285 290 293 296 299 300 302 305 304 303 299 293 287 285 281
281 278 277 273 269 268 264 262 259 256 249 239 237 235 234 235 235 230 224 223 225 231 239 246 255 265 273 279 289 293 296 297 301 304 306 306 306 302 291 289 288 288 285
274 275 278 275 266 268 270 268 260 254 249 244 237 233 232 234 230 228 221 221 225 230 237 245 255 264 271 285 291 294 294 298 303 306 309 311 312 313 298 292 287 284 285
275 274 276 284 284 279 275 270 264 250 245 239 236 232 232 230 229 224 218 220 225 231 238 247 255 263 277 287 289 292 293 301 307 310 314 319 319 314 305 304 297 292 287
276 276 278 280 277 273 267 257 246 240 237 236 232 230 228 227 223 216 215 219 225 231 240 247 254 266 278 282 287 294 300 305 308 318 323 322 318 311 306 304 300 298 296
273 274 276 273 272 268 269 258 242 235 232 230 228 226 225 222 217 211 211 217 223 231 239 246 255 267 275 283 292 300 305 310 321 324 323 317 310 313 311 308 304 302 298
262 264 263 262 258 259 263 252 239 233 231 229 226 226 223 218 210 210 210 212 219 230 236 244 255 267 277 284 297 309 315 319 323 323 318 321 314 317 316 309 305 304 302
271 263 242 247 255 256 251 244 240 238 234 227 224 221 217 210 207 208 209 212 217 222 231 239 251 266 275 298 306 311 321 323 321 312 320 328 325 319 319 315 306 303 307
270 255 259 261 261 263 262 251 245 240 232 227 223 215 207 198 202 205 210 211 213 225 226 232 245 261 283 302 311 325 323 322 314 315 326 330 322 323 325 321 321 315 308
304 283 272 266 266 263 259 254 247 238 230 224 218 209 198 198 199 205 207 210 219 218 219 227 238 252 274 300 327 342 328 325 322 327 326 326 332 337 340 335 327 331 337
301 293 283 267 260 270 260 253 244 237 231 221 214 203 197 194 198 199 204 215 215 216 213 216 233 242 279 317 346 348 336 332 336 334 334 340 345 351 350 351 349 347 341
292 284 286 281 275 269 260 250 243 237 227 217 210 198 195 195 194 200 207 211 210 212 212 212 215 242 303 353 344 335 335 334 338 334 345 357 359 357 356 357 354 352 344
296 289 282 273 275 273 263 249 241 233 223 211 204 197 193 194 193 197 198 201 201 202 203 201 201 232 308 359 332 345 346 350 350 352 1 5 4 2 358 355 351 347 348